Millville, NJ

12:30 AM EST on December 10, 2019 (GMT -0500)
Millville Municipal

Weather History for KMIV - October, 2019

Change the Weather History Date:

Tuesday, October 29, 2019

  Actual Average Record
Temperature  
Mean Temperature 57 °F -  
Max Temperature 63 °F 61 °F 77 °F (1984)
Min Temperature 52 °F 39 °F 26 °F (2001)
Degree Days  
Heating Degree Days 8    
Growing Degree Days 7 (Base 50)    
Moisture  
Dew Point 55 °F    
Average Humidity 92    
Maximum Humidity 97    
Minimum Humidity 80    
Precipitation  
Precipitation 0.01 in - - ()
Sea Level Pressure  
Sea Level Pressure 30.26 in    
Wind  
Wind Speed 4 mph ()    
Max Wind Speed 9 mph    
Max Gust Speed -    
Visibility 4.8 miles    
Events Rain    
Averages and records for this station are not official NWS values.
T = Trace of Precipitation, MM = Missing Value Source: Averaged Metar Reports

Daily Weather History Graph

Daily Weather History Graph

Search for Another Location

Airport or City:

Astronomy

Oct. 29, 2019 Rise Set
Actual Time 7:24 AM EDT 6:02 PM EDT
Civil Twilight 6:57 AM EDT 6:30 PM EDT
Nautical Twilight 6:25 AM EDT 7:01 PM EDT
Astronomical Twilight 5:54 AM EDT 7:33 PM EDT
Moon 8:55 AM EDT (10/29) 7:25 PM EDT (10/29)
Length of Visible Light 11h 33m
Length of Day
10h 38m
Waxing Crescent, 3% of the Moon is Illuminated
Oct 29
Waxing Crescent
Nov 4
First Quarter
Nov 12
Full
Nov 19
Last Quarter
Nov 26
New

Hourly Weather History & Observations

Time (EDT) Temp. Dew Point Humidity Pressure Visibility Wind Dir Wind Speed Gust Speed Precip Events Conditions
12:54 AM 55.9 °F 50.0 °F 80% 30.26 in 10.0 mi Calm Calm - N/A   Overcast
1:54 AM 55.0 °F 51.1 °F 86% 30.27 in 8.0 mi North 3.5 mph - N/A   Overcast
2:54 AM 55.0 °F 51.1 °F 86% 30.27 in 10.0 mi North 3.5 mph - N/A   Overcast
3:54 AM 54.0 °F 52.0 °F 93% 30.26 in 10.0 mi Calm Calm - N/A   Overcast
4:54 AM 55.0 °F 52.0 °F 89% 30.25 in 10.0 mi Calm Calm - N/A   Overcast
5:54 AM 55.0 °F 52.0 °F 89% 30.26 in 10.0 mi North 3.5 mph - N/A   Overcast
6:49 AM 55.4 °F 53.6 °F 94% 30.26 in 4.0 mi North 4.6 mph - N/A   Overcast
6:54 AM 55.0 °F 53.1 °F 93% 30.26 in 2.5 mi North 4.6 mph - N/A   Overcast
7:07 AM 55.0 °F 53.1 °F 93% 30.27 in 2.5 mi NNW 4.6 mph - N/A   Overcast
7:14 AM 55.0 °F 53.1 °F 93% 30.27 in 2.0 mi North 4.6 mph - N/A   Overcast
7:25 AM 55.0 °F 53.1 °F 93% 30.26 in 1.8 mi North 3.5 mph - N/A   Overcast
7:49 AM 55.4 °F 53.6 °F 94% 30.27 in 1.0 mi North 5.8 mph - N/A   Overcast
7:54 AM 55.0 °F 53.1 °F 93% 30.27 in 1.0 mi NNE 4.6 mph - N/A   Overcast
8:06 AM 55.0 °F 54.0 °F 96% 30.27 in 1.2 mi North 4.6 mph - N/A   Overcast
8:42 AM 55.9 °F 54.0 °F 93% 30.28 in 2.0 mi North 6.9 mph - N/A   Overcast
8:49 AM 55.4 °F 53.6 °F 94% 30.28 in 1.8 mi North 4.6 mph - N/A   Overcast
8:54 AM 55.9 °F 54.0 °F 93% 30.28 in 2.0 mi North 4.6 mph - N/A   Overcast
9:09 AM 55.9 °F 54.0 °F 93% 30.28 in 4.0 mi North 5.8 mph - N/A   Overcast
9:54 AM 57.0 °F 55.0 °F 93% 30.28 in 4.0 mi NNW 5.8 mph - N/A   Overcast
10:17 AM 57.9 °F 55.0 °F 90% 30.28 in 2.5 mi NNW 5.8 mph - N/A   Overcast
10:33 AM 57.9 °F 55.9 °F 93% 30.28 in 1.2 mi NNW 6.9 mph - N/A   Overcast
10:54 AM 57.9 °F 55.9 °F 93% 30.28 in 2.0 mi NNW 6.9 mph - N/A   Overcast
11:03 AM 57.9 °F 55.9 °F 93% 30.29 in 1.5 mi NW 5.8 mph - N/A   Overcast
11:16 AM 59.0 °F 55.9 °F 90% 30.28 in 2.5 mi NNW 6.9 mph - N/A   Overcast
11:19 AM 59.0 °F 55.9 °F 90% 30.29 in 3.0 mi NNW 5.8 mph - N/A   Overcast
11:27 AM 59.0 °F 57.0 °F 93% 30.29 in 1.8 mi NNW 6.9 mph - N/A   Overcast
11:37 AM 60.1 °F 57.0 °F 90% 30.29 in 3.0 mi NNW 6.9 mph - N/A   Overcast
11:54 AM 59.0 °F 57.0 °F 93% 30.28 in 5.0 mi North 9.2 mph - N/A   Overcast
12:34 PM 60.1 °F 57.0 °F 90% 30.27 in 2.5 mi NNE 4.6 mph - N/A   Overcast
12:42 PM 60.1 °F 57.0 °F 90% 30.27 in 4.0 mi North 5.8 mph - N/A   Overcast
12:54 PM 61.0 °F 57.9 °F 90% 30.26 in 10.0 mi North 6.9 mph - N/A   Overcast
1:22 PM 62.1 °F 57.0 °F 84% 30.25 in 10.0 mi NNE 3.5 mph - N/A   Overcast
1:54 PM 62.1 °F 55.9 °F 80% 30.24 in 10.0 mi Calm Calm - N/A   Overcast
2:34 PM 61.0 °F 59.0 °F 93% 30.24 in 2.0 mi WNW 5.8 mph - N/A   Overcast
2:54 PM 61.0 °F 57.9 °F 90% 30.24 in 1.8 mi WNW 6.9 mph - 0.00 in Rain Light Rain
3:03 PM 61.0 °F 57.9 °F 90% 30.24 in 2.0 mi NW 6.9 mph - 0.00 in Rain Light Rain
3:18 PM 61.0 °F 57.9 °F 90% 30.24 in 3.0 mi NW 8.1 mph - 0.01 in   Overcast
3:24 PM 60.1 °F 57.9 °F 93% 30.24 in 3.0 mi NW 8.1 mph - 0.01 in   Overcast
3:47 PM 61.0 °F 57.9 °F 90% 30.24 in 6.0 mi NW 6.9 mph - 0.01 in   Overcast
3:54 PM 61.0 °F 57.9 °F 90% 30.24 in 8.0 mi NW 6.9 mph - 0.01 in   Overcast
4:04 PM 62.1 °F 59.0 °F 90% 30.24 in 10.0 mi NNW 4.6 mph - N/A   Overcast
4:54 PM 61.0 °F 57.9 °F 90% 30.24 in 10.0 mi NW 5.8 mph - N/A   Overcast
5:04 PM 61.0 °F 57.0 °F 87% 30.24 in 10.0 mi NW 4.6 mph - N/A   Overcast
5:30 PM 60.1 °F 57.0 °F 90% 30.24 in 10.0 mi WNW 5.8 mph - N/A   Overcast
5:37 PM 60.1 °F 57.0 °F 90% 30.24 in 10.0 mi NW 4.6 mph - N/A   Overcast
5:54 PM 60.1 °F 57.0 °F 90% 30.24 in 10.0 mi NW 3.5 mph - N/A   Overcast
6:54 PM 60.1 °F 57.0 °F 90% 30.25 in 10.0 mi NW 4.6 mph - N/A   Overcast
7:14 PM 60.1 °F 57.0 °F 90% 30.26 in 10.0 mi NW 3.5 mph - N/A   Overcast
7:54 PM 59.0 °F 55.9 °F 90% 30.25 in 10.0 mi Calm Calm - N/A   Mostly Cloudy
8:51 PM 55.4 °F 53.6 °F 94% 30.26 in 1.2 mi Calm Calm - N/A   Partly Cloudy
8:54 PM 55.0 °F 54.0 °F 96% 30.25 in 0.8 mi Calm Calm - N/A   Scattered Clouds
9:22 PM 55.0 °F 53.1 °F 93% 30.26 in 1.0 mi Calm Calm - N/A   Partly Cloudy
9:26 PM 55.0 °F 53.1 °F 93% 30.26 in 3.0 mi Calm Calm - N/A   Partly Cloudy
9:30 PM 53.1 °F 52.0 °F 96% 30.26 in 1.8 mi Calm Calm - N/A   Clear
9:45 PM 52.0 °F 51.1 °F 97% 30.26 in 1.0 mi Calm Calm - N/A   Scattered Clouds
9:47 PM 52.0 °F 51.1 °F 97% 30.26 in 0.8 mi Calm Calm - N/A   Mostly Cloudy
9:54 PM 54.0 °F 52.0 °F 93% 30.26 in 0.8 mi Calm Calm - N/A   Mostly Cloudy
10:15 PM 54.0 °F 52.0 °F 93% 30.26 in 3.0 mi Calm Calm - N/A   Overcast
10:37 PM 55.0 °F 54.0 °F 96% 30.26 in 10.0 mi Calm Calm - N/A   Overcast
10:54 PM 55.0 °F 54.0 °F 96% 30.25 in 10.0 mi Calm Calm - N/A   Overcast
11:50 PM 57.2 °F 55.4 °F 94% 30.26 in 1.8 mi West 4.6 mph - N/A   Overcast
11:54 PM 57.0 °F 55.9 °F 96% 30.25 in 1.0 mi West 4.6 mph - N/A   Mist